Regional Weather Roundup
Issued by NWS

Home | Current Version | Previous Version | Graphics & Text | Print | Product List | Glossary On
Versions: 1 2 3 4 5 6 7 8 9 10 11 12 13 14 15 16 17 18 19 20 21 22 23 24 25 26 27 28 29 30 31 32 33 34 35 36 37 38 39 40 41 42 43 44 45 46 47 48 49 50
978
ASUS45 KBOU 250307
RWRCO

WEATHER ROUNDUP FOR COLORADO
NATIONAL WEATHER SERVICE DENVER/BOULDER CO
800 PM MST FRI FEB 24 2017

NOTE: "FAIR" INDICATES FEW OR NO CLOUDS BELOW 12000 FEET WITH NO
SIGNIFICANT WEATHER AND/OR OBSTRUCTIONS TO VISIBILITY.

COZ001>005-013-030-031-250400-
...NORTHWEST COLORADO...

CITY           SKY/WX    TMP DP  RH WIND       PRES   REMARKS
CRAIG          CLOUDY    13   6  74 SW3       30.03R
HAYDEN         FAIR      12   3  67 SW6       30.00R WCI   3
MEEKER         CLOUDY    21  12  68 NW6       30.02R WCI  13
MOUNT WERNER   NOT AVBL
STEAMBOAT SPGS CLOUDY    14   7  74 CALM      29.99R
WALDEN         NOT AVBL
$$

COZ006>008-011-250400-
...WEST CENTRAL VALLEYS...

CITY           SKY/WX    TMP DP  RH WIND       PRES   REMARKS
GRAND JUNCTION FAIR      25  17  72 SW3       30.06R
MONTROSE       FAIR      23  19  85 S8        30.07R WCI  14
EAGLE          CLOUDY    19  16  86 E9        30.01R WCI   9
RIFLE          MOCLDY    23  19  85 S5        30.04R WCI  17
DELTA          MOCLDY    29  19  67 CALM      30.06R
NUCLA          FAIR      25  10  54 NE3       30.08R
$$

COZ017>023-064>068-250400-
...SOUTHWEST COLORADO...

CITY           SKY/WX    TMP DP  RH WIND       PRES   REMARKS
DURANGO        FAIR      24   8  50 NW10      30.01R WCI  14
CORTEZ         MOCLDY    25  16  68 NE5       30.05R WCI  19
PAGOSA SPRINGS FAIR      22   5  46 SW7       29.98R WCI  14
TELLURIDE      LGT SNOW  13   9  85 SW3       29.98R
WOLF CREEK PAS LGT SNOW   1   0  92 SW10G21   29.88R WCI -14
$$

COZ009-010-012-014-032>034-037-058>063-250400-
...CENTRAL COLORADO...

CITY           SKY/WX    TMP DP  RH WIND       PRES   REMARKS
ASPEN          CLOUDY    15  11  83 CALM      29.94R
BUENA VISTA    MOCLDY    19   0  44 W8        29.91R WCI   8
COPPER MTN     LGT SNOW   5  -4  66 MISG      29.76S
BERTHOUD PASS  CLOUDY    -6 -17  59 NW18      29.72R HAZE    WCI -29
COTTONWOOD PAS MOCLDY    14  -4  44 W12G25    29.85R WCI   0
GUNNISON       FAIR      16   8  71 W5        29.97R WCI   9
KREMMLING      CLOUDY    21   9  58 NW3       29.96S
LEADVILLE      CLOUDY     6   1  80 CALM      29.84R
MONARCH PASS   CLOUDY     1  -4  78 SW17G23   29.89R WCI -19
SALIDA         FAIR      22   2  42 SW16      30.00R WCI   8
SUNLIGHT       NOT AVBL
WILKERSON PASS CLOUDY     5   0  78 SW7       29.82R WCI  -7
$$

COZ069>075-250400-
...SAN LUIS VALLEY/SANGRE DE CRISTO MOUNTAINS...

CITY           SKY/WX    TMP DP  RH WIND       PRES   REMARKS
ALAMOSA        FAIR      19  14  81 CALM      29.94R
LA VETA PASS   FAIR       9   5  85 SW9G17    29.86R WCI  -5
SAGUACHE       FAIR      19   3  49 NW13      29.95R WCI   7
$$

COZ035-036-038>040-250400-
...NORTHERN COLORADO FRONT RANGE...

CITY           SKY/WX    TMP DP  RH WIND       PRES   REMARKS
DENVER INTL AP MOCLDY    20  15  81 E6        30.01R WCI  12
DMNS CITY PARK   N/A     24  14  65 W1        30.01S
AURORA         MOCLDY    19  16  87 E6        30.00S WCI  11
FRONT RANGE AP NOT AVBL
ERIE MUNI ARPT MOCLDY    24  17  74 CALM      30.03R
BOULDER MUN AP MOCLDY    21  19  93 W3        30.02S
CENTENNIAL     MOCLDY    19  11  70 SW3       29.99R
BROOMFIELD     CLOUDY    23  18  80 CALM      30.01R
FORT COLLINS   FAIR      21  15  78 SE3       30.04R
LONGMONT       FAIR      21  16  83 W3        30.05S
$$

COZ041-046-047-076>085-087-088-250400-
...PIKES PEAK/PALMER DIVIDE AND SOUTHERN FOOTHILLS...

CITY           SKY/WX    TMP DP  RH WIND       PRES   REMARKS
COLO. SPRINGS  CLOUDY    20  15  81 E6        29.99R WCI  12
A. F. ACADEMY  FLURRIES  18  14  84 CALM      29.96R
SCHRIEVER AFB  FAIR      17  11  78 NE6       30.00R WCI   8
ELLICOTT       FAIR     N/A N/A N/A E9        29.98R
FALCON         FAIR      16  14  90 CALM      29.97R
FORT CARSON    FLURRIES  24  13  63 S7        29.99R WCI  16
LIMON          MOCLDY    15  12  88 N6        30.02R WCI   6
MONUMENT HILL  CLOUDY    14  12  92 CALM      29.96R
TRINIDAD       FAIR      22   8  55 E6        30.00R WCI  14
$$

COZ042>045-048>051-090-091-250400-
...NORTHEAST COLORADO...

CITY           SKY/WX    TMP DP  RH WIND       PRES   REMARKS
GREELEY ARPT   FAIR      21  16  81 CALM      30.06R
AKRON          MOCLDY    19  14  81 NW3       30.05R
BURLINGTON     CLOUDY    25  16  68 NW9       30.08R WCI  15
WRAY           NOT AVBL
STERLING       MOCLDY    23  18  80 CALM      30.07S
HOLYOKE        FAIR      21  18  86 NW3       30.10R
FORT MORGAN    CLOUDY    23  17  79 CALM      30.06S
$$

COZ086-089-092>099-250400-
...SOUTHEAST COLORADO...

CITY           SKY/WX    TMP DP  RH WIND       PRES   REMARKS
PUEBLO         MOCLDY    28   9  44 E8        30.03R WCI  20
LA JUNTA       MOCLDY    28  12  51 E8        30.06R WCI  20
LAMAR          FAIR      25  12  58 E6        30.08R WCI  18
SPRINGFIELD      N/A     23  13  65 NE10      30.04R WCI  12
$$




USA.gov is the U.S. government's official web portal to all federal, state and local government web resources and services.